Location: Bryzozowice
(50.3667°N, 18.9667°E)
Time: 21:27:11
(UTC+00:00)

Meteor 1-27 - Pass Details

Date: 24 January 2020
Orbit: 836 x 894 km, 81.3° (Epoch: 25 February)

Event Time Altitude Azimuth Distance (km) Brightness Sun altitude
Rises 17:25:32 0° 348° (NNW) 3,405 7.4 -19.3°
Reaches altitude 10° 17:27:58 10° 351° (N) 2,464 6.6 -19.7°
Maximum altitude 17:33:32 74° 77° (ENE) 874 4.0 -20.6°
Drops below altitude 10° 17:39:05 10° 162° (SSE) 2,451 6.5 -21.4°
Sets 17:41:30 0° 164° (SSE) 3,386 7.2 -21.8°
